FLOCK 3P-88

Last updated on Wed Feb 14 2018 16:20:25 GMT+0000 (Coordinated Universal Time)

1 41982U 17008AL 18044.90685109 .00002320 00000-0 98872-4 0 9990 2 41982 97.4683 110.5548 0009831 73.2669 286.9646 15.23937577 54279
UTC large
Height (km)
Speed (km/s)
/
Latitude / Longitude
Inclination (degrees)
Orbital Period (minutes)
Azimuth
Elevation
Range (km)
Doppler Factor

Next 0 passes for location: London (51.5072 / 0.1276)

Sorry there are no passes over London.